Location: Devargunta
(16.7631°N, 80.9077°E)
Time: 10:31:12
(UTC+00:00)

Cosmos 1092 Rocket - Pass Details

Date: 19 January 2021
Orbit: 954 x 995 km, 83.0° (Epoch: 28 February)

Event Time Altitude Azimuth Distance (km) Brightness Sun altitude
Rises 12:49:24 0° 165° (SSE) 3,680 7.1 -6.2°
Reaches altitude 10° 12:52:05 10° 158° (SSE) 2,727 6.3 -6.8°
Maximum altitude 12:57:49 39° 91° (E) 1,422 4.5 -8.1°
Drops below altitude 10° 13:03:30 10° 24° (NNE) 2,705 5.9 -9.4°
Sets 13:06:08 0° 17° (NNE) 3,647 6.7 -10.0°
